Weather History for Catania, Italy

Change the Weather History Date:

Sunday, September 30, 2012

  Actual Average Record
Temperature  
Mean Temperature 72 °F -  
Max Temperature 80 °F 76 °F 86 °F (2013)
Min Temperature 64 °F 57 °F 32 °F (1996)
Cooling Degree Days 7    
Growing Degree Days 22 (Base 50)    
Moisture  
Dew Point 66 °F    
Average Humidity 75    
Maximum Humidity 88    
Minimum Humidity 54    
Precipitation  
Precipitation 0.00 in 0.14 in - ()
Sea Level Pressure  
Sea Level Pressure 30.01 in    
Wind  
Wind Speed 7 mph ()    
Max Wind Speed 15 mph    
Max Gust Speed -    
Visibility 6.2 miles    
Events      
Averages and records for this station are not official NWS values.
T = Trace of Precipitation, MM = Missing Value Source: Averaged Metar Reports

Daily Weather History Graph

Daily Weather History Graph

Search for Another Location

Airport:

Trip Planner

Search our weather history database for the weather conditions in past years. The results will help you decide how hot, cold, wet, or windy it might be!

Date:

Astronomy

Sep. 30, 2012 Rise Set
Actual Time 6:54 AM CEST 6:44 PM CEST
Civil Twilight 6:28 AM CEST 7:10 PM CEST
Nautical Twilight 5:58 AM CEST 7:40 PM CEST
Astronomical Twilight 5:27 AM CEST 8:10 PM CEST
Moon 6:40 PM CEST (9/30) 7:06 AM CEST (9/30)
Length of Visible Light 12h 41m
Length of Day
11h 49m
Full, 100% of the Moon is Illuminated
Sep 30
Full
Oct 8
Last Quarter
Oct 15
New
Oct 22
First Quarter
Oct 29
Full

Hourly Weather History & Observations

Time (CEST) Temp. Heat Index Dew Point Humidity Pressure Visibility Wind Dir Wind Speed Gust Speed Precip Events Conditions
12:20 AM 69.8 °F - 64.4 °F 83% 30.01 in - West 8.1 mph - N/A   Clear
12:50 AM 69.8 °F - 64.4 °F 83% 30.04 in - West 8.1 mph - N/A   Clear
1:20 AM 69.8 °F - 66.2 °F 88% 30.01 in - West 5.8 mph - N/A   Clear
1:50 AM 69.8 °F - 66.2 °F 88% 30.01 in - WSW 3.5 mph - N/A   Clear
2:20 AM 68.0 °F - 64.4 °F 88% 30.01 in - SW 5.8 mph - N/A   Clear
2:50 AM 66.2 °F - 62.6 °F 88% 30.01 in - SSW 4.6 mph - N/A   Clear
3:20 AM 66.2 °F - 62.6 °F 88% 30.01 in - WSW 5.8 mph - N/A   Clear
3:50 AM 64.4 °F - 60.8 °F 88% 30.01 in - WSW 4.6 mph - N/A   Clear
4:20 AM 64.4 °F - 60.8 °F 88% 30.01 in - SW 4.6 mph - N/A   Clear
4:50 AM 64.4 °F - 60.8 °F 88% 29.98 in - WSW 3.5 mph - N/A   Clear
5:20 AM 66.2 °F - 60.8 °F 83% 30.01 in - WSW 4.6 mph - N/A   Clear
5:50 AM 64.4 °F - 60.8 °F 88% 30.01 in 6.2 mi West 4.6 mph - N/A   Partly Cloudy
6:20 AM 66.2 °F - 59.0 °F 78% 30.01 in 6.2 mi West 6.9 mph - N/A   Partly Cloudy
6:50 AM 69.8 °F - 59.0 °F 68% 30.01 in 6.2 mi NW 3.5 mph - N/A   Scattered Clouds
7:20 AM 68.0 °F - 60.8 °F 78% 30.01 in 6.2 mi Calm Calm - N/A   Scattered Clouds
7:50 AM 69.8 °F - 62.6 °F 78% 30.01 in 6.2 mi Variable 1.2 mph - N/A   Scattered Clouds
8:20 AM 68.0 °F - 59.0 °F 73% 30.04 in - WSW 5.8 mph - N/A   Clear
8:50 AM 69.8 °F - 59.0 °F 68% 30.04 in - WSW 6.9 mph - N/A   Clear
9:20 AM 75.2 °F - 60.8 °F 61% 30.04 in - West 3.5 mph - N/A   Clear
9:50 AM 78.8 °F - 64.4 °F 61% 30.04 in - Variable 2.3 mph - N/A   Clear
10:20 AM 78.8 °F - 64.4 °F 61% 30.04 in - Variable 2.3 mph - N/A   Clear
10:50 AM 80.6 °F 82.7 °F 66.2 °F 61% 30.04 in - East 5.8 mph - N/A   Clear
11:20 AM 80.6 °F 81.8 °F 62.6 °F 54% 30.04 in - East 5.8 mph - N/A   Clear
11:50 AM 80.6 °F 82.3 °F 64.4 °F 58% 30.04 in - East 9.2 mph - N/A   Clear
12:20 PM 80.6 °F 82.7 °F 66.2 °F 61% 30.04 in - East 9.2 mph - N/A   Clear
12:50 PM 80.6 °F 82.7 °F 66.2 °F 61% 30.04 in - ENE 9.2 mph - N/A   Clear
1:20 PM 80.6 °F 82.7 °F 66.2 °F 61% 30.01 in - ENE 10.4 mph - N/A   Clear
1:50 PM 80.6 °F 83.9 °F 69.8 °F 70% 30.01 in - ENE 12.7 mph - N/A   Clear
2:20 PM 80.6 °F 83.9 °F 69.8 °F 70% 30.01 in - ENE 12.7 mph - N/A   Clear
2:50 PM 78.8 °F - 69.8 °F 74% 30.01 in - NE 13.8 mph - N/A   Clear
3:20 PM 80.6 °F 83.9 °F 69.8 °F 70% 29.98 in - NE 15.0 mph - N/A   Clear
3:50 PM 78.8 °F - 69.8 °F 74% 29.98 in 6.2 mi NE 13.8 mph - N/A   Partly Cloudy
4:20 PM 78.8 °F - 69.8 °F 74% 29.98 in 6.2 mi NE 15.0 mph - N/A   Scattered Clouds
4:50 PM 78.8 °F - 69.8 °F 74% 29.98 in 6.2 mi NE 15.0 mph - N/A   Scattered Clouds
5:20 PM 78.8 °F - 69.8 °F 74% 29.98 in 6.2 mi NE 13.8 mph - N/A   Scattered Clouds
5:50 PM 78.8 °F - 68.0 °F 69% 29.98 in 6.2 mi NE 13.8 mph - N/A   Scattered Clouds
6:20 PM 77.0 °F - 69.8 °F 78% 29.98 in 6.2 mi NE 13.8 mph - N/A   Scattered Clouds
6:50 PM 77.0 °F - 69.8 °F 78% 29.98 in 6.2 mi NE 13.8 mph - N/A   Partly Cloudy
7:20 PM 77.0 °F - 69.8 °F 78% 30.01 in 6.2 mi NE 13.8 mph - N/A   Partly Cloudy
7:50 PM 77.0 °F - 69.8 °F 78% 30.01 in - NE 12.7 mph - N/A   Clear
8:20 PM 77.0 °F - 69.8 °F 78% 30.01 in - NE 13.8 mph - N/A   Clear
8:50 PM 77.0 °F - 69.8 °F 78% 30.01 in 6.2 mi NE 13.8 mph - N/A   Scattered Clouds
9:20 PM 77.0 °F - 69.8 °F 78% 30.04 in 6.2 mi NE 12.7 mph - N/A   Scattered Clouds
9:50 PM 77.0 °F - 69.8 °F 78% 30.04 in 6.2 mi NE 13.8 mph - N/A   Scattered Clouds
10:20 PM 77.0 °F - 68.0 °F 74% 30.04 in 6.2 mi NE 12.7 mph - N/A   Partly Cloudy
10:50 PM 75.2 °F - 68.0 °F 78% 30.04 in 6.2 mi NE 10.4 mph - N/A   Scattered Clouds
11:20 PM 75.2 °F - 68.0 °F 78% 30.04 in 6.2 mi ENE 8.1 mph - N/A   Scattered Clouds
11:50 PM 75.2 °F - 68.0 °F 78% 30.04 in 6.2 mi ENE 6.9 mph - N/A   Scattered Clouds